Find EOS-06

NORAD ID: 54361 Int'l Des: 2022-158 Owner: ISRO Country: IN operational
LEOCIRCULARRETROGRADESSO

Live Position

Loading 3D Globe...

About EOS-06

Description loading...

Upcoming Passes

Passes for default location (London). Set your location on the main map for personalized predictions.

Altitude History

Loading altitude history...

Two-Line Element Set

1 54361U 22158A 26110.63086735 .00000209 00000-0 69537-4 0 9990
2 54361 98.3493 209.6001 0002224 115.0763 245.0661 14.46975849179512
Epoch: Apr 20, 2026 • Age: 9 hours

Current Status

Altitude 749.4 km
Velocity 7.48 km/s
Sub-Earth Point -35.81°S, 168.33°E
Launch Date Nov 26, 2022
Age 3.4 years
Type other

Technical Details

Classification Payload
Mass 1117.00 kg
Dry Mass 950.00 kg
Total Mass 1117.00 kg
Length 3.90 m
Diameter 2.00 m
Span 11.70 m
Shape Box + Hex Box+3 pan
Manufacturer ISAC/HAL
Bus Type IRS
Phase Status In Orbit
Owner/State ISRO/IN

Most Searched